Time,TemperatureF,DewpointF,PressureIn,WindDirection,WindDirectionDegrees,WindSpeedMPH,WindSpeedGustMPH,Humidity,HourlyPrecipIn,Conditions,Clouds,dailyrainin,SoftwareType,DateUTC
2013-01-30 00:02:00,26.0,19.0,-100.00,North,0,15.0,21.0,77,0.00,,,0.00,,2013-01-30 06:02:00,
2013-01-30 00:11:00,26.0,19.0,-100.00,North,0,11.0,20.0,77,0.00,,,0.00,,2013-01-30 06:11:00,
2013-01-30 00:21:00,25.0,18.0,-100.00,North,0,12.0,19.0,75,0.00,,,0.00,,2013-01-30 06:21:00,
2013-01-30 00:32:00,25.0,18.0,-100.00,North,350,9.0,17.0,75,0.00,,,0.00,,2013-01-30 06:32:00,
2013-01-30 00:41:00,25.0,19.0,-100.00,North,350,11.0,15.0,78,0.00,,,0.00,,2013-01-30 06:41:00,
2013-01-30 00:51:00,25.0,19.0,-100.00,North,0,12.0,17.0,80,0.00,,,0.00,,2013-01-30 06:51:00,
2013-01-30 01:02:00,25.0,19.0,-100.00,NNW,345,10.0,16.0,80,0.00,,,0.00,,2013-01-30 07:02:00,
2013-01-30 01:11:00,25.0,19.0,-100.00,North,0,9.0,14.0,80,0.00,,,0.00,,2013-01-30 07:11:00,
2013-01-30 01:21:00,24.0,18.0,-100.00,North,5,14.0,20.0,79,0.00,,,0.00,,2013-01-30 07:21:00,
2013-01-30 01:31:00,24.0,18.0,-100.00,NNW,340,10.0,17.0,79,0.00,,,0.00,,2013-01-30 07:31:00,
2013-01-30 01:41:00,23.0,18.0,-100.00,NNW,340,10.0,18.0,80,0.00,,,0.00,,2013-01-30 07:41:00,
2013-01-30 01:52:00,23.0,19.0,-100.00,NNW,340,13.0,18.0,82,0.00,,,0.00,,2013-01-30 07:52:00,
2013-01-30 02:01:00,23.0,19.0,-100.00,NNW,340,12.0,20.0,83,0.00,,,0.00,,2013-01-30 08:01:00,
2013-01-30 02:11:00,24.0,19.0,-100.00,NNW,345,14.0,19.0,83,0.00,,,0.00,,2013-01-30 08:11:00,
2013-01-30 02:21:00,24.0,19.0,-100.00,NNW,335,15.0,22.0,83,0.00,,,0.00,,2013-01-30 08:21:00,
2013-01-30 02:32:00,23.0,19.0,-100.00,NNW,340,14.0,22.0,84,0.00,,,0.00,,2013-01-30 08:32:00,
2013-01-30 02:42:00,23.0,19.0,-100.00,NNW,340,14.0,20.0,84,0.00,,,0.00,,2013-01-30 08:42:00,
2013-01-30 02:52:00,23.0,19.0,-100.00,NNW,340,16.0,21.0,84,0.00,,,0.00,,2013-01-30 08:52:00,
2013-01-30 03:01:00,23.0,19.0,-100.00,NNW,345,12.0,22.0,84,0.00,,,0.00,,2013-01-30 09:01:00,
2013-01-30 03:11:00,23.0,19.0,-100.00,NNW,335,14.0,19.0,84,0.00,,,0.00,,2013-01-30 09:11:00,
2013-01-30 03:21:00,23.0,19.0,-100.00,NW,325,14.0,21.0,84,0.00,,,0.00,,2013-01-30 09:21:00,
2013-01-30 03:32:00,23.0,19.0,-100.00,NNW,335,16.0,20.0,85,0.00,,,0.00,,2013-01-30 09:32:00,
2013-01-30 03:41:00,22.0,19.0,-100.00,NNW,335,16.0,22.0,86,0.00,,,0.00,,2013-01-30 09:41:00,
2013-01-30 03:51:00,22.0,19.0,-100.00,NNW,330,14.0,24.0,86,0.00,,,0.00,,2013-01-30 09:51:00,
2013-01-30 04:01:00,22.0,18.0,-100.00,NNW,335,15.0,23.0,86,0.00,,,0.00,,2013-01-30 10:01:00,
2013-01-30 04:11:00,22.0,18.0,-100.00,NW,325,16.0,21.0,86,0.00,,,0.00,,2013-01-30 10:11:00,
2013-01-30 04:21:00,21.0,18.0,-100.00,NW,325,15.0,20.0,86,0.00,,,0.00,,2013-01-30 10:21:00,
2013-01-30 04:31:00,21.0,18.0,-100.00,NW,325,14.0,21.0,86,0.00,,,0.00,,2013-01-30 10:31:00,
2013-01-30 04:41:00,21.0,18.0,-100.00,NW,320,11.0,20.0,86,0.00,,,0.00,,2013-01-30 10:41:00,
2013-01-30 04:52:00,20.0,16.0,-100.00,NNW,330,13.0,18.0,86,0.00,,,0.00,,2013-01-30 10:52:00,
2013-01-30 05:02:00,20.0,16.0,-100.00,NNW,330,13.0,22.0,86,0.00,,,0.00,,2013-01-30 11:02:00,
2013-01-30 05:11:00,19.0,16.0,-100.00,NNW,340,15.0,21.0,85,0.00,,,0.00,,2013-01-30 11:11:00,
2013-01-30 05:22:00,19.0,16.0,-100.00,NW,325,13.0,24.0,84,0.00,,,0.00,,2013-01-30 11:22:00,
2013-01-30 05:32:00,19.0,14.0,-100.00,NNW,330,14.0,20.0,83,0.00,,,0.00,,2013-01-30 11:32:00,
2013-01-30 05:42:00,18.0,14.0,-100.00,NNW,330,17.0,24.0,82,0.00,,,0.00,,2013-01-30 11:42:00,
2013-01-30 05:52:00,18.0,12.0,-100.00,NW,320,18.0,27.0,81,0.00,,,0.00,,2013-01-30 11:52:00,
2013-01-30 06:02:00,17.0,12.0,-100.00,NNW,335,19.0,27.0,81,0.00,,,0.00,,2013-01-30 12:02:00,
2013-01-30 06:12:00,17.0,12.0,-100.00,NNW,330,14.0,26.0,81,0.00,,,0.00,,2013-01-30 12:12:00,
2013-01-30 06:22:00,17.0,12.0,-100.00,NNW,330,11.0,19.0,81,0.00,,,0.00,,2013-01-30 12:22:00,
2013-01-30 06:32:00,17.0,12.0,-100.00,NNW,340,14.0,24.0,81,0.00,,,0.00,,2013-01-30 12:32:00,
2013-01-30 06:42:00,17.0,12.0,-100.00,NNW,335,16.0,21.0,81,0.00,,,0.00,,2013-01-30 12:42:00,
2013-01-30 07:02:00,16.0,10.0,-100.00,NNW,340,13.0,20.0,81,0.00,,,0.00,,2013-01-30 13:02:00,
2013-01-30 07:12:00,16.0,10.0,-100.00,NNW,340,14.0,22.0,80,0.00,,,0.00,,2013-01-30 13:12:00,
2013-01-30 07:22:00,16.0,10.0,-100.00,NNW,340,16.0,25.0,78,0.00,,,0.00,,2013-01-30 13:22:00,
2013-01-30 07:32:00,16.0,10.0,-100.00,North,350,15.0,23.0,78,0.00,,,0.00,,2013-01-30 13:32:00,
2013-01-30 07:42:00,16.0,10.0,-100.00,NNW,340,14.0,22.0,79,0.00,,,0.00,,2013-01-30 13:42:00,
2013-01-30 07:52:00,16.0,10.0,-100.00,North,350,12.0,22.0,80,0.00,,,0.00,,2013-01-30 13:52:00,
2013-01-30 08:02:00,16.0,10.0,-100.00,NNW,335,11.0,21.0,81,0.00,,,0.00,,2013-01-30 14:02:00,
2013-01-30 08:12:00,15.0,10.0,-100.00,NNW,335,14.0,23.0,81,0.00,,,0.00,,2013-01-30 14:12:00,
2013-01-30 08:22:00,15.0,10.0,-100.00,NNW,340,16.0,24.0,81,0.00,,,0.00,,2013-01-30 14:22:00,
2013-01-30 08:32:00,15.0,10.0,-100.00,NNW,335,17.0,24.0,80,0.00,,,0.00,,2013-01-30 14:32:00,
2013-01-30 08:42:00,15.0,10.0,-100.00,NNW,330,16.0,24.0,80,0.00,,,0.00,,2013-01-30 14:42:00,
2013-01-30 08:52:00,15.0,10.0,-100.00,NNW,330,14.0,23.0,79,0.00,,,0.00,,2013-01-30 14:52:00,
2013-01-30 09:03:00,15.0,9.0,-100.00,NNW,330,17.0,22.0,79,0.00,,,0.00,,2013-01-30 15:03:00,
2013-01-30 09:12:00,15.0,9.0,-100.00,NNW,330,15.0,22.0,79,0.00,,,0.00,,2013-01-30 15:12:00,
2013-01-30 09:23:00,15.0,9.0,-100.00,NW,325,11.0,23.0,79,0.00,,,0.00,,2013-01-30 15:23:00,
2013-01-30 09:33:00,15.0,9.0,-100.00,NNW,330,9.0,19.0,79,0.00,,,0.00,,2013-01-30 15:33:00,
2013-01-30 09:43:00,15.0,9.0,-100.00,NNW,345,14.0,22.0,77,0.00,,,0.00,,2013-01-30 15:43:00,
2013-01-30 09:52:00,15.0,9.0,-100.00,NW,325,13.0,21.0,77,0.00,,,0.00,,2013-01-30 15:52:00,
2013-01-30 10:03:00,15.0,9.0,-100.00,NNW,335,16.0,24.0,77,0.00,,,0.00,,2013-01-30 16:03:00,
2013-01-30 10:12:00,15.0,9.0,-100.00,NW,320,18.0,22.0,76,0.00,,,0.00,,2013-01-30 16:12:00,
2013-01-30 10:23:00,15.0,9.0,-100.00,NNW,335,12.0,24.0,76,0.00,,,0.00,,2013-01-30 16:23:00,
2013-01-30 10:32:00,15.0,9.0,-100.00,NNW,340,16.0,22.0,76,0.00,,,0.00,,2013-01-30 16:32:00,
2013-01-30 10:42:00,15.0,9.0,-100.00,NNW,335,17.0,28.0,76,0.00,,,0.00,,2013-01-30 16:42:00,
2013-01-30 10:52:00,15.0,9.0,-100.00,NW,325,18.0,24.0,76,0.00,,,0.00,,2013-01-30 16:52:00,
2013-01-30 11:02:00,15.0,9.0,-100.00,NNW,330,19.0,24.0,76,0.00,,,0.00,,2013-01-30 17:02:00,
2013-01-30 11:12:00,15.0,9.0,-100.00,NNW,340,11.0,24.0,76,0.00,,,0.00,,2013-01-30 17:12:00,
2013-01-30 11:22:00,15.0,9.0,-100.00,NNW,330,13.0,24.0,76,0.00,,,0.00,,2013-01-30 17:22:00,
2013-01-30 11:32:00,15.0,9.0,-100.00,NNW,340,17.0,22.0,75,0.00,,,0.00,,2013-01-30 17:32:00,
2013-01-30 11:42:00,15.0,9.0,-100.00,NNW,335,14.0,24.0,75,0.00,,,0.00,,2013-01-30 17:42:00,
2013-01-30 11:53:00,15.0,9.0,-100.00,NNW,335,16.0,24.0,75,0.00,,,0.00,,2013-01-30 17:53:00,
2013-01-30 12:02:00,15.0,9.0,-100.00,NNW,335,16.0,26.0,74,0.00,,,0.00,,2013-01-30 18:02:00,
2013-01-30 12:12:00,15.0,7.0,-100.00,NNW,330,21.0,29.0,74,0.00,,,0.00,,2013-01-30 18:12:00,
2013-01-30 12:22:00,15.0,9.0,-100.00,NNW,335,16.0,25.0,74,0.00,,,0.00,,2013-01-30 18:22:00,
2013-01-30 12:33:00,15.0,7.0,-100.00,NNW,345,15.0,29.0,73,0.00,,,0.00,,2013-01-30 18:33:00,
2013-01-30 12:42:00,15.0,7.0,-100.00,NNW,335,17.0,26.0,72,0.00,,,0.00,,2013-01-30 18:42:00,
2013-01-30 12:52:00,15.0,7.0,-100.00,NW,320,20.0,27.0,70,0.00,,,0.00,,2013-01-30 18:52:00,
2013-01-30 13:02:00,15.0,7.0,-100.00,North,0,17.0,26.0,71,0.00,,,0.00,,2013-01-30 19:02:00,
2013-01-30 13:12:00,14.0,7.0,-100.00,NNW,335,22.0,30.0,71,0.00,,,0.00,,2013-01-30 19:12:00,
2013-01-30 13:22:00,14.0,7.0,-100.00,NNW,335,17.0,30.0,71,0.00,,,0.00,,2013-01-30 19:22:00,
2013-01-30 13:32:00,15.0,7.0,-100.00,NNW,345,17.0,27.0,71,0.00,,,0.00,,2013-01-30 19:32:00,
2013-01-30 13:42:00,15.0,7.0,-100.00,North,0,15.0,26.0,71,0.00,,,0.00,,2013-01-30 19:42:00,
2013-01-30 13:52:00,15.0,7.0,-100.00,North,350,16.0,24.0,71,0.00,,,0.00,,2013-01-30 19:52:00,
2013-01-30 14:03:00,15.0,9.0,-100.00,NNW,340,14.0,27.0,72,0.00,,,0.00,,2013-01-30 20:03:00,
2013-01-30 14:11:00,15.0,9.0,-100.00,NNW,330,13.0,22.0,72,0.00,,,0.00,,2013-01-30 20:11:00,
2013-01-30 14:22:00,15.0,9.0,-100.00,NNW,335,14.0,23.0,72,0.00,,,0.00,,2013-01-30 20:22:00,
2013-01-30 14:33:00,16.0,9.0,-100.00,NW,325,14.0,22.0,71,0.00,,,0.00,,2013-01-30 20:33:00,
2013-01-30 14:42:00,16.0,9.0,-100.00,NNW,335,17.0,28.0,71,0.00,,,0.00,,2013-01-30 20:42:00,
2013-01-30 14:52:00,15.0,7.0,-100.00,NNW,335,18.0,25.0,71,0.00,,,0.00,,2013-01-30 20:52:00,
2013-01-30 15:03:00,15.0,7.0,-100.00,NNW,340,18.0,28.0,71,0.00,,,0.00,,2013-01-30 21:03:00,
2013-01-30 15:12:00,16.0,9.0,-100.00,NNW,340,17.0,27.0,71,0.00,,,0.00,,2013-01-30 21:12:00,
2013-01-30 15:22:00,15.0,7.0,-100.00,NW,325,18.0,27.0,71,0.00,,,0.00,,2013-01-30 21:22:00,
2013-01-30 15:32:00,15.0,9.0,-100.00,NW,325,14.0,22.0,72,0.00,,,0.00,,2013-01-30 21:32:00,
2013-01-30 15:42:00,15.0,7.0,-100.00,NW,305,19.0,24.0,73,0.00,,,0.00,,2013-01-30 21:42:00,
2013-01-30 15:52:00,15.0,7.0,-100.00,NW,315,18.0,24.0,73,0.00,,,0.00,,2013-01-30 21:52:00,
2013-01-30 16:02:00,15.0,7.0,-100.00,NW,305,16.0,24.0,73,0.00,,,0.00,,2013-01-30 22:02:00,
2013-01-30 16:12:00,14.0,7.0,-100.00,NW,305,17.0,22.0,74,0.00,,,0.00,,2013-01-30 22:12:00,
2013-01-30 16:22:00,14.0,7.0,-100.00,NW,315,15.0,24.0,73,0.00,,,0.00,,2013-01-30 22:22:00,
2013-01-30 16:32:00,14.0,7.0,-100.00,NW,315,15.0,25.0,72,0.00,,,0.00,,2013-01-30 22:32:00,
2013-01-30 16:42:00,14.0,7.0,-100.00,NNW,330,17.0,24.0,71,0.00,,,0.00,,2013-01-30 22:42:00,
2013-01-30 16:52:00,13.0,5.0,-100.00,NW,320,17.0,23.0,72,0.00,,,0.00,,2013-01-30 22:52:00,
2013-01-30 17:02:00,13.0,5.0,-100.00,NW,305,16.0,24.0,72,0.00,,,0.00,,2013-01-30 23:02:00,
2013-01-30 17:12:00,13.0,5.0,-100.00,NW,320,17.0,23.0,72,0.00,,,0.00,,2013-01-30 23:12:00,
2013-01-30 17:22:00,13.0,5.0,-100.00,NW,315,17.0,23.0,71,0.00,,,0.00,,2013-01-30 23:22:00,
2013-01-30 17:32:00,13.0,5.0,-100.00,NW,315,17.0,25.0,72,0.00,,,0.00,,2013-01-30 23:32:00,
2013-01-30 17:42:00,13.0,5.0,-100.00,NW,310,16.0,24.0,72,0.00,,,0.00,,2013-01-30 23:42:00,
2013-01-30 17:52:00,13.0,5.0,-100.00,NW,310,13.0,21.0,73,0.00,,,0.00,,2013-01-30 23:52:00,
2013-01-30 18:02:00,13.0,5.0,-100.00,NW,310,16.0,23.0,72,0.00,,,0.00,,2013-01-31 00:02:00,
2013-01-30 18:11:00,13.0,5.0,-100.00,NW,325,17.0,23.0,72,0.00,,,0.00,,2013-01-31 00:11:00,
2013-01-30 18:21:00,12.0,5.0,-100.00,NW,315,17.0,24.0,72,0.00,,,0.00,,2013-01-31 00:21:00,
2013-01-30 18:32:00,12.0,5.0,-100.00,NW,315,17.0,24.0,73,0.00,,,0.00,,2013-01-31 00:32:00,
2013-01-30 18:42:00,12.0,5.0,-100.00,NW,320,14.0,24.0,72,0.00,,,0.00,,2013-01-31 00:42:00,
2013-01-30 18:52:00,11.0,5.0,-100.00,NW,310,14.0,21.0,73,0.00,,,0.00,,2013-01-31 00:52:00,
2013-01-30 19:02:00,12.0,5.0,-100.00,NW,310,16.0,25.0,73,0.00,,,0.00,,2013-01-31 01:02:00,
2013-01-30 19:11:00,11.0,5.0,-100.00,NW,315,16.0,23.0,73,0.00,,,0.00,,2013-01-31 01:11:00,
2013-01-30 19:21:00,11.0,5.0,-100.00,NW,325,16.0,26.0,73,0.00,,,0.00,,2013-01-31 01:21:00,
2013-01-30 19:31:00,11.0,5.0,-100.00,NW,310,17.0,24.0,74,0.00,,,0.00,,2013-01-31 01:31:00,
2013-01-30 19:41:00,11.0,5.0,-100.00,NW,310,19.0,28.0,74,0.00,,,0.00,,2013-01-31 01:41:00,
2013-01-30 19:52:00,11.0,3.0,-100.00,NW,315,19.0,26.0,74,0.00,,,0.00,,2013-01-31 01:52:00,
2013-01-30 20:01:00,11.0,3.0,-100.00,NW,310,15.0,21.0,74,0.00,,,0.00,,2013-01-31 02:01:00,
2013-01-30 20:11:00,11.0,3.0,-100.00,NW,315,15.0,21.0,74,0.00,,,0.00,,2013-01-31 02:11:00,
2013-01-30 20:21:00,11.0,3.0,-100.00,NW,310,15.0,26.0,73,0.00,,,0.00,,2013-01-31 02:21:00,
2013-01-30 20:32:00,10.0,3.0,-100.00,NW,315,16.0,24.0,74,0.00,,,0.00,,2013-01-31 02:32:00,
2013-01-30 20:41:00,10.0,3.0,-100.00,NW,315,16.0,24.0,74,0.00,,,0.00,,2013-01-31 02:41:00,
2013-01-30 20:52:00,10.0,3.0,-100.00,NW,315,16.0,24.0,74,0.00,,,0.00,,2013-01-31 02:52:00,
2013-01-30 21:02:00,10.0,3.0,-100.00,NW,310,11.0,22.0,73,0.00,,,0.00,,2013-01-31 03:02:00,
2013-01-30 21:11:00,10.0,3.0,-100.00,NW,315,17.0,24.0,73,0.00,,,0.00,,2013-01-31 03:11:00,
2013-01-30 21:21:00,9.0,3.0,-100.00,NW,310,14.0,21.0,74,0.00,,,0.00,,2013-01-31 03:21:00,
2013-01-30 21:32:00,9.0,1.0,-100.00,NW,315,17.0,25.0,74,0.00,,,0.00,,2013-01-31 03:32:00,
2013-01-30 21:41:00,9.0,1.0,-100.00,NW,315,15.0,24.0,74,0.00,,,0.00,,2013-01-31 03:41:00,
2013-01-30 21:51:00,8.0,1.0,-100.00,NW,305,17.0,26.0,74,0.00,,,0.00,,2013-01-31 03:51:00,
2013-01-30 22:02:00,8.0,1.0,-100.00,NW,305,17.0,24.0,74,0.00,,,0.00,,2013-01-31 04:02:00,
2013-01-30 22:11:00,8.0,1.0,-100.00,NW,315,14.0,24.0,74,0.00,,,0.00,,2013-01-31 04:11:00,
2013-01-30 22:22:00,8.0,1.0,-100.00,NW,310,15.0,21.0,74,0.00,,,0.00,,2013-01-31 04:22:00,
2013-01-30 22:31:00,8.0,1.0,-100.00,NW,315,14.0,21.0,74,0.00,,,0.00,,2013-01-31 04:31:00,
2013-01-30 22:41:00,7.0,0.0,-100.00,NW,320,17.0,21.0,73,0.00,,,0.00,,2013-01-31 04:41:00,
2013-01-30 22:51:00,7.0,0.0,-100.00,NW,320,14.0,21.0,73,0.00,,,0.00,,2013-01-31 04:51:00,
2013-01-30 23:03:00,7.0,0.0,-100.00,NW,315,16.0,22.0,73,0.00,,,0.00,,2013-01-31 05:03:00,
2013-01-30 23:11:00,7.0,0.0,-100.00,NW,320,14.0,22.0,73,0.00,,,0.00,,2013-01-31 05:11:00,
2013-01-30 23:22:00,7.0,0.0,-100.00,NW,315,12.0,20.0,73,0.00,,,0.00,,2013-01-31 05:22:00,
2013-01-30 23:31:00,7.0,0.0,-100.00,NW,315,12.0,20.0,73,0.00,,,0.00,,2013-01-31 05:31:00,
2013-01-30 23:41:00,7.0,0.0,-100.00,NW,320,12.0,17.0,73,0.00,,,0.00,,2013-01-31 05:41:00,
2013-01-30 23:51:00,7.0,0.0,-100.00,NW,320,12.0,17.0,73,0.00,,,0.00,,2013-01-31 05:51:00,